Weather reports worldwide

Advertisment
Freiburg, Germany (10803): temperature & dewpoint: 10.09.2019 05:00:00 - 16.09.2019 05:00:00 (CEST)Freiburg, Germany (10803): temperature 5cm & temperature -5cm: 10.09.2019 05:00:00 - 16.09.2019 05:00:00 (CEST)Freiburg, Germany (10803): temperature -20cm & temperature -100cm: 10.09.2019 05:00:00 - 16.09.2019 05:00:00 (CEST)Freiburg, Germany (10803): wind speed & gusts: 10.09.2019 05:00:00 - 16.09.2019 05:00:00 (CEST)Freiburg, Germany (10803): wind direction: 10.09.2019 05:00:00 - 16.09.2019 05:00:00 (CEST)Freiburg, Germany (10803): reduced air pressure: 10.09.2019 05:00:00 - 16.09.2019 05:00:00 (CEST)Freiburg, Germany (10803): visibility: 10.09.2019 05:00:00 - 16.09.2019 05:00:00 (CEST)Freiburg, Germany (10803): sunshine duration: 10.09.2019 05:00:00 - 16.09.2019 05:00:00 (CEST)Freiburg, Germany (10803): precipitation: 10.09.2019 05:00:00 - 16.09.2019 05:00:00 (CEST)
Date & Time tt [°C] td [°C] tt 5cm [°C] tt -5cm [°C] tt -20cm [°C] tt -100cm [°C] ff [km/h] ff [kn] fx [km/h] fx [kn] dd ppp [hPa] vv [km] sd [min] rr [mm]
16.09.2019 05:00:00 14,6 13,8 11,2 16,2 20,1 18,4 3 2 6 3 S 1021,0 25 0 0,0
16.09.2019 04:00:00 14,8 14,1 12,0 16,7 20,5 18,4 0 0 5 3 N 1021,3 12 0 0,0
16.09.2019 03:00:00 16,4 15,3 12,7 17,3 20,9 18,4 5 3 11 6 ENE 1021,6 23 0 0,0
16.09.2019 02:00:00 15,9 15,2 12,4 17,9 21,3 18,4 0 0 12 7 N 1021,7 11 0 0,0
16.09.2019 01:00:00 17,1 15,6 13,2 18,4 21,7 18,4 3 2 6 3 S 1021,7 25 0 0,0
16.09.2019 00:00:00 16,5 15,5 13,6 19,2 22,1 18,4 0 0 7 4 N 1021,8 31 0 0,0
15.09.2019 23:00:00 18,3 16,2 14,2 20,1 22,6 18,4 0 0 7 4 N 1021,5 28 0 0,0
15.09.2019 22:00:00 18,5 16,4 15,7 21,3 23,0 18,4 4 2 8 5 N 1021,3 28 0 0,0
15.09.2019 21:00:00 20,8 17,3 16,3 22,7 23,4 18,4 3 2 6 3 S 1020,7 40 0 0,0
15.09.2019 20:00:00 23,1 17,4 19,2 25,0 23,6 18,3 4 2 9 5 NE 1020,4 41 0 0,0
15.09.2019 19:00:00 27,1 15,9 28,5 27,9 23,6 18,3 5 3 10 5 N 1020,0 53 54 0,0
15.09.2019 18:00:00 27,4 15,6 31,6 30,2 23,3 18,3 8 5 14 8 NNW 1020,4 47 60 0,0
15.09.2019 17:00:00 28,1 16,2 33,7 32,3 22,8 18,3 7 4 16 8 N 1020,7 41 60 0,0
15.09.2019 16:00:00 27,3 15,2 34,8 33,4 22,0 18,3 8 4 18 10 NW 1021,6 37 60 0,0
15.09.2019 15:00:00 27,4 15,2 33,1 33,6 21,1 18,3 6 3 14 8 W 1022,1 42 60 0,0
15.09.2019 14:00:00 26,0 15,4 31,0 32,7 20,2 18,3 7 4 14 7 W 1022,9 43 60 0,0
15.09.2019 13:00:00 24,8 16,1 33,2 30,8 19,3 18,3 5 3 10 6 N 1023,7 42 60 0,0
15.09.2019 12:00:00 23,2 15,9 29,3 27,9 18,5 18,3 5 3 10 6 WNW 1024,4 36 60 0,0
15.09.2019 11:00:00 20,6 15,9 26,4 24,3 18,0 18,3 5 3 13 7 NNE 1025,0 22 60 0,0
15.09.2019 10:00:00 18,5 14,9 24,1 20,6 17,8 18,3 3 2 6 4 N 1025,1 15 60 0,0
15.09.2019 09:00:00 16,1 14,4 17,8 16,8 17,9 18,3 4 2 9 5 N 1025,5 19 59 0,0
15.09.2019 08:00:00 12,8 12,4 12,5 14,1 18,2 18,3 4 2 8 4 NW 1025,9 7 10 0,0
15.09.2019 07:00:00 12,8 12,4 9,2 14,0 18,5 18,3 2 1 7 4 SSW 1025,8 17 0 0,0
15.09.2019 06:00:00 12,7 12,3 9,8 14,4 18,8 18,3 3 1 5 3 NNE 1025,7 11 0 0,0
15.09.2019 05:00:00 13,1 12,8 10,0 14,8 19,2 18,3 2 1 5 3 SW 1026,2 1,0 0 0,0
15.09.2019 04:00:00 14,1 13,9 10,3 15,4 19,5 18,3 4 2 6 3 NE 1026,2 7 0 0,0
15.09.2019 03:00:00 14,4 14,0 10,8 16,0 19,9 18,3 3 2 4 2 SW 1026,3 19 0 0,0
15.09.2019 02:00:00 15,1 14,6 11,7 16,7 20,2 18,3 2 1 6 3 N 1026,2 7 0 0,0
15.09.2019 01:00:00 15,5 14,8 12,4 17,5 20,6 18,3 3 1 6 3 N 1026,6 17 0 0,0
15.09.2019 00:00:00 16,7 15,4 13,2 18,5 20,9 18,3 2 1 5 3 W 1026,9 27 0 0,0
14.09.2019 23:00:00 19,1 16,2 16,7 20,0 21,2 18,3 5 3 9 5 NNW 1026,9 31 0 0,0
14.09.2019 22:00:00 19,7 16,7 17,6 20,7 21,5 18,3 3 2 5 3 SW 1026,7 33 0 0,0
14.09.2019 21:00:00 19,9 16,5 18,1 21,3 21,8 18,3 0 0 5 3 N 1026,8 45 0 0,0
14.09.2019 20:00:00 20,5 16,8 17,2 22,5 21,9 18,3 4 2 8 4 NNW 1026,6 49 0 0,0
14.09.2019 19:00:00 23,1 16,5 24,1 24,9 22,0 18,3 6 3 10 6 NNW 1026,4 55 35 0,0
14.09.2019 18:00:00 23,4 16,0 26,4 26,6 21,8 18,3 8 5 19 10 NNW 1026,3 65 60 0,0
14.09.2019 17:00:00 24,4 16,4 29,2 28,5 21,4 18,3 11 6 18 10 NW 1026,5 44 60 0,0
14.09.2019 16:00:00 23,8 16,2 29,9 29,4 20,8 18,3 9 5 18 10 N 1027,0 43 57 0,0
14.09.2019 15:00:00 22,8 15,7 30,0 29,9 20,1 18,3 11 6 19 10 NW 1027,7 33 60 0,0
14.09.2019 14:00:00 22,6 16,7 28,9 29,7 19,3 18,3 9 5 19 10 NNW 1028,3 17 57 0,0
14.09.2019 13:00:00 21,3 15,6 29,7 28,4 18,5 18,3 8 4 16 9 N 1029,1 29 60 0,0
14.09.2019 12:00:00 18,6 14,2 25,6 24,6 17,9 18,3 6 3 11 6 NNW 1030,2 21 46 0,0
14.09.2019 11:00:00 15,8 13,9 18,7 19,6 17,7 18,3 3 2 10 5 SSW 1031,1 12 0 0,0
14.09.2019 10:00:00 14,3 13,8 16,1 17,6 17,6 18,3 5 3 9 5 NW 1031,4 4,1 0 0,0
14.09.2019 09:00:00 14,2 13,9 15,5 16,5 17,7 18,3 5 3 9 5 NW 1030,8 1,1 0 0,0
14.09.2019 08:00:00 13,5 13,4 14,0 15,5 17,8 18,3 5 3 8 5 NW 1030,9 0,2 0 0,0
14.09.2019 07:00:00 13,8 13,4 13,8 14,9 18,0 18,3 3 1 5 3 NW 1030,5 4,6 0 0,0
14.09.2019 06:00:00 12,9 12,6 9,8 14,0 18,3 18,3 4 2 5 3 WNW 1030,2 8 0 0,0
14.09.2019 05:00:00 13,8 13,5 10,2 14,4 18,7 18,3 5 3 7 4 NNW 1030,2 10 0 0,0
14.09.2019 04:00:00 14,0 13,5 11,0 14,9 19,0 18,3 4 2 7 4 NNW 1030,6 15 0 0,0
14.09.2019 03:00:00 13,9 12,8 11,0 15,5 19,3 18,3 2 1 4 2 S 1031,0 21 0 0,0
14.09.2019 02:00:00 15,3 14,2 12,0 16,1 19,7 18,3 0 0 7 4 N 1030,9 27 0 0,0
14.09.2019 01:00:00 15,1 13,7 12,6 16,8 20,1 18,3 2 1 9 5 N 1030,8 26 0 0,0
14.09.2019 00:00:00 15,9 14,5 13,0 17,4 20,5 18,3 3 1 6 4 NNE 1031,0 34 0 0,0
13.09.2019 23:00:00 16,8 14,6 13,2 18,2 20,9 18,3 4 2 6 4 N 1031,1 30 0 0,0
13.09.2019 22:00:00 18,5 14,4 14,7 19,2 21,3 18,3 4 2 7 4 NNE 1030,7 61 0 0,0
13.09.2019 21:00:00 18,7 14,1 15,1 20,4 21,6 18,3 4 2 7 4 NNE 1030,5 68 0 0,0
13.09.2019 20:00:00 20,7 13,8 17,2 22,4 21,8 18,3 3 2 15 8 N 1029,9 70 3 0,0
13.09.2019 19:00:00 22,9 14,0 24,5 24,9 21,9 18,3 11 6 21 11 NNW 1029,7 70 60 0,0
13.09.2019 18:00:00 24,2 14,6 28,0 27,3 21,7 18,3 11 6 26 14 NNW 1029,5 52 60 0,0
13.09.2019 17:00:00 24,4 14,7 30,3 29,3 21,2 18,3 13 7 23 12 NNW 1029,7 40 60 0,0
13.09.2019 16:00:00 24,4 14,6 30,9 30,5 20,6 18,3 15 8 21 11 NW 1030,0 48 60 0,0
13.09.2019 15:00:00 24,1 14,5 31,0 30,4 19,8 18,3 14 8 26 14 NW 1030,2 18 60 0,0
13.09.2019 14:00:00 24,0 14,9 30,4 30,1 19,0 18,3 14 7 23 12 NNW 1030,8 27 60 0,0
13.09.2019 13:00:00 22,2 14,7 29,5 28,4 18,1 18,3 11 6 23 12 N 1031,3 38 60 0,0
13.09.2019 12:00:00 20,9 13,7 26,9 26,2 17,4 18,3 11 6 17 9 NW 1031,9 51 60 0,0
13.09.2019 11:00:00 19,9 12,1 26,1 23,5 16,8 18,3 6 3 10 6 NW 1032,2 62 60 0,0
13.09.2019 10:00:00 18,7 11,7 21,8 19,6 16,6 18,3 2 1 6 4 N 1032,3 61 60 0,0
13.09.2019 09:00:00 15,3 11,3 18,2 15,5 16,7 18,3 5 3 7 4 NNE 1032,2 40 60 0,0
13.09.2019 08:00:00 11,2 10,1 11,2 12,4 16,9 18,3 0 0 3 2 N 1032,6 26 13 0,0
13.09.2019 07:00:00 10,4 9,8 7,6 12,3 17,2 18,3 0 0 3 2 N 1032,7 31 0 0,0
13.09.2019 06:00:00 10,6 10,1 8,2 12,7 17,6 18,3 0 0 4 2 N 1032,2 15 0 0,0
13.09.2019 05:00:00 11,3 10,5 8,5 13,1 17,9 18,3 3 2 3 2 SSW 1032,1 53 0 0,0
13.09.2019 04:00:00 11,7 10,8 8,7 13,6 18,3 18,3 0 0 3 1 N 1031,9 55 0 0,0
13.09.2019 03:00:00 12,1 11,0 9,3 14,1 18,6 18,3 0 0 4 2 N 1032,1 54 0 0,0
13.09.2019 02:00:00 12,4 11,4 9,4 14,7 19,1 18,3 0 0 4 2 N 1032,2 43 0 0,0
13.09.2019 01:00:00 14,0 11,2 9,7 15,3 19,5 18,3 0 0 6 3 N 1031,8 49 0 0,0
13.09.2019 00:00:00 14,4 11,6 11,6 16,1 19,9 18,4 3 2 16 9 SE 1032,2 51 0 0,0
12.09.2019 23:00:00 14,9 12,5 11,1 17,1 20,4 18,4 3 2 6 4 N 1031,3 52 0 0,0
12.09.2019 22:00:00 16,8 12,4 12,9 18,3 20,8 18,4 3 2 9 5 ESE 1031,0 49 0 0,0
12.09.2019 21:00:00 19,8 12,1 14,1 19,7 21,2 18,4 4 2 6 3 SSE 1030,5 56 0 0,0
12.09.2019 20:00:00 19,6 13,1 16,1 22,1 21,4 18,4 4 2 6 3 NE 1030,0 60 5 0,0
12.09.2019 19:00:00 24,1 12,0 26,4 25,2 21,4 18,4 4 2 8 4 NW 1029,5 70 60 0,0
12.09.2019 18:00:00 25,4 9,7 29,5 27,8 21,1 18,4 4 2 10 6 NW 1029,2 66 60 0,0
12.09.2019 17:00:00 25,0 9,3 29,6 29,6 20,5 18,4 8 4 16 9 W 1029,5 68 60 0,0
12.09.2019 16:00:00 24,6 7,3 29,2 30,4 19,8 18,4 11 6 18 10 WNW 1029,9 55 60 0,0
12.09.2019 15:00:00 24,5 7,0 29,4 30,5 18,9 18,4 6 4 16 9 SW 1030,2 41 60 0,0
12.09.2019 14:00:00 23,3 8,3 31,0 29,7 18,0 18,4 5 3 12 7 WNW 1030,6 37 60 0,0
12.09.2019 13:00:00 22,5 8,7 29,0 27,8 17,1 18,4 9 5 15 8 NW 1031,0 23 60 0,0
12.09.2019 12:00:00 21,8 9,1 26,1 25,4 16,3 18,4 5 3 13 7 WSW 1031,3 42 60 0,0
12.09.2019 11:00:00 19,6 10,9 25,7 22,2 15,8 18,4 6 3 11 6 NNW 1031,3 35 60 0,0
12.09.2019 10:00:00 16,6 10,2 20,9 17,9 15,6 18,4 5 3 7 4 NW 1031,1 42 60 0,0
12.09.2019 09:00:00 13,8 9,9 15,8 14,0 15,7 18,5 4 2 6 4 N 1030,8 39 53 0,0
12.09.2019 08:00:00 10,5 8,8 10,2 11,5 15,9 18,5 0 0 4 2 N 1030,9 20 15 0,0
12.09.2019 07:00:00 9,9 9,0 7,5 11,4 16,2 18,5 2 1 3 2 N 1030,5 16 0 0,0
12.09.2019 06:00:00 9,9 8,8 8,2 11,8 16,4 18,5 4 2 6 3 N 1030,1 24 0 0,0
12.09.2019 05:00:00 10,9 9,5 7,9 12,4 16,7 18,5 3 2 5 3 N 1029,9 35 0 0,0
12.09.2019 04:00:00 13,4 9,5 10,6 13,1 16,9 18,5 4 2 11 6 SSE 1029,4 58 0 0,0
12.09.2019 03:00:00 13,4 9,6 10,6 13,1 17,2 18,5 6 4 8 5 S 1029,4 60 0 0,0
12.09.2019 02:00:00 12,4 9,8 8,9 13,2 17,5 18,5 3 2 5 3 S 1029,1 44 0 0,0
12.09.2019 01:00:00 12,0 10,8 10,5 13,8 17,9 18,5 0 0 6 4 N 1028,9 28 0 0,0
12.09.2019 00:00:00 12,9 10,6 9,4 14,3 18,2 18,5 5 3 8 4 S 1028,2 40 0 0,0
11.09.2019 23:00:00 14,9 11,7 11,4 15,6 18,5 18,6 2 1 11 6 S 1028,0 51 0 0,0
11.09.2019 22:00:00 17,2 11,0 15,1 16,5 18,7 18,6 10 5 26 14 SSE 1027,4 51 0 0,0
11.09.2019 21:00:00 17,0 12,1 15,6 17,3 19,0 18,6 13 7 18 10 SE 1026,9 53 0 0,1
11.09.2019 20:00:00 18,5 11,2 16,6 18,8 19,1 18,6 8 5 10 6 SE 1026,1 34 0 0,0
11.09.2019 19:00:00 19,3 10,7 18,8 20,3 19,2 18,6 3 1 5 3 NW 1025,6 54 0 0,0
11.09.2019 18:00:00 19,5 11,2 19,7 21,2 19,1 18,6 5 3 9 5 NW 1025,3 52 0 0,0
11.09.2019 17:00:00 20,1 9,7 21,3 23,1 18,9 18,6 6 4 14 8 W 1024,7 45 0 0,0
11.09.2019 16:00:00 20,3 7,7 22,8 23,7 18,6 18,6 6 4 16 9 WNW 1024,6 63 0 0,0
11.09.2019 15:00:00 20,4 7,7 24,3 25,4 18,0 18,6 5 3 15 8 NNW 1024,1 60 12 0,0
11.09.2019 14:00:00 20,2 8,7 25,5 26,7 17,3 18,6 5 3 16 8 NNW 1024,3 45 41 0,0
11.09.2019 13:00:00 19,9 11,0 28,0 26,2 16,4 18,6 6 4 11 6 NW 1024,3 35 60 0,0
11.09.2019 12:00:00 18,2 10,7 23,2 23,5 15,7 18,7 4 2 11 6 SSW 1024,5 28 60 0,0
11.09.2019 11:00:00 16,0 10,1 20,4 20,4 15,2 18,7 5 3 12 7 W 1024,8 22 60 0,0
11.09.2019 10:00:00 14,1 10,0 19,0 17,0 14,9 18,7 6 3 9 5 NNW 1024,5 25 60 0,0
11.09.2019 09:00:00 12,5 9,0 13,4 13,2 15,0 18,7 0 0 5 3 N 1024,1 24 60 0,0
11.09.2019 08:00:00 8,6 7,9 9,1 10,1 15,2 18,7 4 2 5 3 N 1024,3 12 7 0,0
11.09.2019 07:00:00 8,1 7,8 4,9 9,8 15,5 18,7 0 0 5 3 N 1023,7 10 0 0,0
11.09.2019 06:00:00 8,6 8,1 5,3 10,2 15,9 18,7 0 0 3 2 N 1022,7 14 0 0,0
11.09.2019 05:00:00 8,8 8,4 5,9 10,7 16,2 18,7 4 2 4 2 NNW 1022,1 9 0 0,0
11.09.2019 04:00:00 10,1 9,4 6,3 11,2 16,5 18,7 0 0 6 3 N 1021,8 21 0 0,0
11.09.2019 03:00:00 10,3 9,4 7,3 12,0 16,8 18,8 4 2 7 4 NW 1021,4 26 0 0,0
11.09.2019 02:00:00 11,7 10,3 8,8 13,0 17,1 18,8 0 0 9 5 N 1021,2 25 0 0,0
11.09.2019 01:00:00 12,3 10,2 11,0 13,8 17,4 18,8 5 3 10 5 NNW 1020,7 34 0 0,0
11.09.2019 00:00:00 12,2 10,1 11,0 13,7 17,7 18,8 6 3 9 5 N 1020,3 31 0 0,0
10.09.2019 23:00:00 13,2 9,9 10,6 14,2 18,1 18,8 5 3 14 8 NNW 1019,8 38 0 0,0
10.09.2019 22:00:00 13,6 10,5 10,7 15,2 18,4 18,8 3 2 5 3 W 1019,7 45 0 0,0
10.09.2019 21:00:00 15,8 10,6 13,9 16,6 18,7 18,8 4 2 13 7 N 1018,9 50 0 0,0
10.09.2019 20:00:00 17,4 9,7 15,6 17,5 18,9 18,9 9 5 19 10 NNW 1018,1 57 5 0,0
10.09.2019 19:00:00 19,0 10,0 19,5 19,5 19,0 18,9 8 4 18 10 NNW 1017,2 61 60 0,0
10.09.2019 18:00:00 20,1 9,5 23,2 21,7 18,9 18,9 12 6 21 11 NNW 1016,6 46 60 0,0
10.09.2019 17:00:00 20,2 9,8 23,5 22,9 18,6 18,9 10 5 22 12 NNW 1016,3 56 60 0,0
10.09.2019 16:00:00 19,8 10,1 24,0 23,9 18,2 18,9 14 8 23 13 NNW 1016,3 44 60 0,0
10.09.2019 15:00:00 19,4 10,0 24,0 24,6 17,6 18,9 11 6 20 11 NNW 1016,5 38 60 0,0
10.09.2019 14:00:00 18,9 10,2 23,7 25,4 16,8 18,9 10 6 18 10 NW 1016,4 29 60 0,0
10.09.2019 13:00:00 17,3 9,2 22,9 24,6 16,0 18,9 7 4 13 7 NNW 1016,6 40 60 0,0
10.09.2019 12:00:00 16,0 9,0 21,4 22,3 15,3 19,0 4 2 12 6 WNW 1017,0 48 60 0,0
10.09.2019 11:00:00 14,5 9,0 19,6 19,2 14,9 19,0 5 3 8 5 W 1016,8 31 60 0,0
10.09.2019 10:00:00 11,7 8,5 16,1 15,2 14,7 19,0 6 3 10 5 NNW 1016,7 25 26 0,0
10.09.2019 09:00:00 10,6 7,9 11,4 12,6 14,7 19,0 5 3 7 4 NNW 1016,5 28 17 0,0
10.09.2019 08:00:00 8,9 7,7 8,7 10,4 14,9 19,0 5 3 9 5 W 1016,3 24 0 0,0
10.09.2019 07:00:00 8,4 7,1 7,6 9,8 15,2 19,0 6 4 9 5 NE 1015,7 34 0 0,0
10.09.2019 06:00:00 7,0 6,2 4,2 9,8 15,5 19,0 0 0 4 2 N 1015,8 27 0 0,0
10.09.2019 05:00:00 7,2 6,5 5,9 10,4 15,8 19,1 4 2 6 4 N 1015,9 23 0 0,0

tt = temperature
td = dewpoint
tt 5cm = temperature 5cm
tt -5cm = temperature -5cm
tt -20cm = temperature -20cm
tt -100cm = temperature -100cm
ff = wind speed
fx = gusts
dd = wind direction
ppp = reduced air pressure
vv = visibility
sd = sunshine duration
rr = precipitation

Next stations